This demonstration page uses our WeatherBlox Daily Observations layout. Learn more.

Left ArrowRight Arrow

38.89511, -77.03637

Hourly Observations for September 25, 2021

Temp ( °F °C ) Dew Point ( °F °C ) Humidity (%) Winds ( mph kmh ) Pressure ( in mb ) Visibility ( mi km ) Precip ( " mm )
12:52 am 00:52 Clear 61 16.1 54 12.2 78 78 N N/A 30.09 1019 10 16 N/A
1:52 am 01:52 Clear 61 16.1 54 12.2 78 78 N N/A 30.09 1019 10 16 N/A
2:52 am 02:52 Clear 59 15 54 12.2 83 83 N 3 6 30.09 1019 10 16 N/A
3:52 am 03:52 Clear 58 14.4 53 11.7 84 84 N N/A 30.08 1019 10 16 N/A
4:52 am 04:52 Clear 58 14.4 53 11.7 84 84 N N/A 30.08 1019 10 16 N/A
5:52 am 05:52 Clear 57 13.9 52 11.1 83 83 N 3 6 30.07 1018 10 16 N/A
6:52 am 06:52 Mostly Clear 58 14.4 53 11.7 84 84 N N/A 30.08 1019 10 16 N/A
7:52 am 07:52 Sunny 59 15 53 11.7 81 81 N 3 6 30.09 1019 10 16 N/A
8:52 am 08:52 Mostly Sunny 64 17.8 54 12.2 70 70 N N/A 30.08 1019 10 16 N/A
9:52 am 09:52 Mostly Sunny 65 18.3 52 11.1 63 63 N N/A 30.08 1019 10 16 N/A
10:52 am 10:52 Partly Cloudy 70 21.1 54 12.2 57 57 ESE 3 6 30.08 1019 10 16 N/A
11:52 am 11:52 Mostly Cloudy 75 23.9 50 10 41 41 W 8 13 30.06 1018 10 16 N/A
12:52 pm 12:52 Mostly Cloudy 76 24.4 48 8.9 37 37 WSW 8 13 30.04 1017 10 16 N/A
1:52 pm 13:52 Mostly Cloudy 75 23.9 49 9.4 40 40 SSW 6 9 30.01 1016 10 16 N/A
2:52 pm 14:52 Mostly Cloudy 75 23.9 49 9.4 40 40 SW 12 19 29.99 1016 10 16 N/A
3:52 pm 15:52 Mostly Cloudy 76 24.4 50 10 40 40 SSE 6 9 29.96 1015 10 16 N/A
4:52 pm 16:52 Mostly Cloudy 75 23.9 49 9.4 40 40 WSW 7 11 29.95 1014 10 16 N/A
5:52 pm 17:52 Mostly Cloudy 73 22.8 50 10 44 44 WSW 6 9 29.95 1014 10 16 N/A
6:52 pm 18:52 Mostly Cloudy 72 22.2 50 10 46 46 SW 7 11 29.95 1014 10 16 N/A
7:52 pm 19:52 Mostly Cloudy 68 20 54 12.2 61 61 S 6 9 29.94 1014 10 16 N/A
8:52 pm 20:52 Mostly Cloudy 67 19.4 58 14.4 73 73 S 5 7 29.95 1014 10 16 N/A
9:52 pm 21:52 Mostly Cloudy 66 18.9 54 12.2 65 65 SSW 5 7 29.96 1015 10 16 N/A
10:52 pm 22:52 Mostly Cloudy 65 18.3 54 12.2 68 68 S 6 9 29.96 1015 10 16 N/A
11:52 pm 23:52 Partly Cloudy 66 18.9 52 11.1 61 61 WNW 6 9 29.98 1015 10 16 N/A

Powered by AerisWeather